Погода в Суре

Погода в Суре : погода сейчас, прогноз погоды и архив. Всё, что Вы хотите узнать о погоде в Суре!

Поиск расширенной информации на нашем сайте:

Другие новости

Новости СМИ2

Главная страница сайта

Новости сайта

03.07.2017

Напоминаем, что на нашем специализированном сайте Метеоцентр.Азия вы можете получить высокодетализированные автоматические прогнозы погоды по пунктам России, СНГ и мира в авиационном формате (включающие направление и скорость ветра, видимость, явления погоды, количество и форму облачности, нижнюю и верхнюю границу облачности).


Погода в Суре - сегодня

Время (UTC), дата Ветер
(°,м/с) 
Видим.   Явления Облачность Т
(°С)
Тd
(°С)
f(%) Тe
(°С)
Pmin
(гПа)
dP
(гПа)
Po
(мм)
O2
(г/м3)
Тmin Tmax R s Состояние
почвы
09 19.02.18 030 (СВ) 10 км  слаб. снег  9/9 2000 м средняя 
[As trans]
-9.7 -11.7 85 -11  1021.6  -0.3  760  319           
18 19.02.18 040 (СВ) 10 км  слаб. снег  9/9 2000 м средняя 
[As trans]
-10 -11.2 91 -12  1020.8  -0.4  759  319           
21 19.02.18 030 (СВ) 20000 м  {снег}  6/6 2000 м средняя 
[As trans]
-11.4 -12.3 93 -11  1020.4  -0.4  759  320           
03 20.02.18 050 (СВ) 20000 м  {снег}  9/9 2000 м средняя 
[Ac As]
-10.4 -12 88 -13  1020.2  -0.3  759  319  -13.5    0.2  50  равномерный
сухой снег
100% 
06 20.02.18 030 (СВ) 20000 м  {снег}  4/1 2000 м средняя, верхняя 
[Ac lent|Ci fib]
-10.5 -12.2 87 -12  1020.2  759  319           
09 20.02.18 050 (СВ) 20000 м    3/0 верхняя 
[Ci fib]
-9.4 -14.3 67 -12  1020.1  0.1  759  318           
12 20.02.18 030 (СВ) 20000 м    6/0 верхняя 
[Cc]
-10.5 -15.3 68 -14  1020.1  759  319           
18 20.02.18 310 (СЗ) 20000 м    ясно 
-18.2 -19.9 87 -21  1020.3  0.1  759  329           
21 20.02.18 310 (СЗ) 20000 м    ясно 
-21.2 -22.2 92 -24  1020.2  -0.2  759  333           
00 21.02.18 320 (СЗ) 20000 м    ясно 
-22.7 -24.1 88 -26  1020.6  0.3  759  335           
06 21.02.18 340 (С) 20000 м    3/0 верхняя 
[Ci fib]
-26.6 -29 80 -30  1021.1  0.5  759  341  -27.4         
09 21.02.18 330 (СЗ) 20000 м    4/1 2000 м средняя, верхняя 
[Ac lent|Ci fib]
-18.7 -21.8 76 -23  1020.7  0.1  759  330           
12 21.02.18 330 (СЗ) 20000 м    3/0 верхняя 
[Ci fib]
-14.5 -19.4 66 -17  1020.7  0.1  759  325           
18 21.02.18 340 (С) 20000 м    ясно 
-25 -26.6 86 -28  1022.1  0.5  760  339           
21 21.02.18 тихо ()   20000 м    ясно 
-29 -31.5 79 -29  1022.9  0.7  761  345           
00 22.02.18 300 (СЗ) 20000 м    ясно 
-31.3 -34.1 76 -32  1023.3  0.3  761  348           
03 22.02.18 тихо ()   20000 м    ясно 
-33.5 -36.6 74 -34  1023.2  -0.2  761  351  -34.4      50  равномерный
сухой снег
100% 
09 22.02.18 340 (С) 20000 м  {снег}  8/3 2000 м средняя, верхняя 
[As trans|Cs]
-20.7 -23.1 81 -24  1022.1  -0.5  760  333           
18 22.02.18 340 (С) 20000 м  в посл. час снег  6/6 2000 м средняя 
[As trans]
-18.2 -19.5 90 -18  1022.2  0.6  760  330           
21 22.02.18 320 (СЗ) 20000 м    4/4 2000 м средняя 
[Ac As]
-22.5 -24.2 86 -25  1022.7  0.4  761  336           
00 23.02.18 320 (СЗ) 20000 м    10/10 2000 м 
[Ac As]
-20.5 -22.4 85 -25  1022.9  0.3  761  333           
03 23.02.18 320 (СЗ) 10 км  слаб. снег  10/10 2000 м 
[Ac As]
-22.1 -24.2 83 -27  1023.5  0.5  761  335  -22.5    0.2  50  равномерный
сухой снег
100% 
06 23.02.18 320 (СЗ) 20000 м  {снег}  9/9 2000 м средняя 
[Ac As]
-22.5 -24.8 81 -27  1023.9  0.4  761  336           
09 23.02.18 350 (С) 20000 м    9/3 2000 м средняя, верхняя 
[As trans|Cs]
-19.4 -23.2 72 -24  1024  0.2  762  332           
12 23.02.18 010 (С) 20000 м    9/0 верхняя 
[Cs]
-17.1 -21.2 70 -22  1024.7  0.8  762  329           
Время (UTC), дата Ветер
(°,м/с) 
Видим.   Явления Облачность Т
(°С)
Тd
(°С)
f(%) Тe
(°С)
Pmin
(гПа)
dP
(гПа)
Po
(мм)
O2
(г/м3)
Тmin Tmax R s Состояние
почвы

Для получения пояснительной информации подведите курсор к названию столбца.

ПОГОДА в Суре - архив

Всё, что Вы хотите узнать о погоде в Суре - удобно и подробно!

Выберите нужную дату (начиная с 1 января 2015* года) и нажмите кнопку "Найти".
Будут отображены архивные сводки погоды по пункту Сура, начиная с указанной даты.


Отображать данные в формате CSV (для использования в таблицах Excel)


Внимание! Наш архив погоды предназначен исключительно для личного некоммерческого использования в познавательных целях. Если Вам необходимы официальные справки о состоянии погоды (для производственных, юридических, коммерческих и т.п. целей), обращайтесь в органы Росгидромета.

*Примечание: данная дата относится к архиву по метеостанциям СССР (Россия, СНГ, Балтия).
Архив по метеостанциям Зарубежной Европы и Азии (кроме Китая) хранится 10 дней, по другим регионам земного шара (Китай, Африка, Америка, Австралия, Океания) - 1 день.

Сура - район местоположения метеостанции


Название, широта, долгота, высота метеостанции:
Сура 63.6°ш. 45.6°д. 62 м над ур. моря [Российская Федерация]

Дополнительная информация

В oтличие oт бoльшинства пoгoдных сайтoв мы публикуем пoдрoбную метеoинфoрмацию в детальнoм прoфессиoнальнoм фoрмате.

Характеристики температуры и влажнoсти вoздуха измеряются на высoте 2 м в тени вдали oт зданий и деревьев.
Скoрoсть ветра измеряется на высoте 10 м (на урoвне рoста челoвека скoрoсть ветра ниже в 1.5-2 раза). Если метеoстанция нахoдится в гoрoде или в лесу, тo скoрoсть ветра занижена на 2-4 м/с пo сравнению с oткрытым местoм. Скoрoсть ветра над акватoриями крупных рек и oзёр, а также на вершинах хoлмoв на 2-5 м/с выше, чем в oбычных услoвиях.
Атмoсфернoе давление в разных тoчках местнoсти мoжет значительнo oтличаться oт давления на метеoстанции, в зависимoсти oт услoвий рельефа (при пoдъёме на 10 м давление пoнижается примернo на 1 мм рт.ст.).